sat.trackr.live / text

‹ back to catalog

STARLINK-3267

NORAD 50197 · 2021-125AT

PAYLOAD ACTIVE UNKNOWN

§ Identity

Operator
Country
US
Launch date
2021-12-18
Launch site
AFWTR
Launch vehicle
Mass (kg)
RCS (m²)

Purposes: comms

External: N2YO · Heavens-Above · Gunter

§ Orbital elements

Epoch: 2026-09-19T22:01:36.998112Z

Period
93.85 min
Inclination
53.1606°
Eccentricity
0.0001215
Mean motion
15.34393552 rev/d
Perigee alt
461.9 km
Apogee alt
463.6 km
Semi-major
6,840.9 km
B*
7.7532e-5
RAAN
76.1217°
Arg perigee
93.9212°
Mean anomaly
266.1929°
Rev number
26,625

§ Raw data

STARLINK-32671 50197U 21125AT  26262.91778933  .00002244  00000+0  77532-4 0  99972 50197  53.1606  76.1217 0001215  93.9212 266.1929 15.34393552266250

JSON: /api/v1/satellites/50197 · /tle

For live sub-satellite position, see the globe view (requires WebGL).

§ Visibility from observer

Set your observer location to see the next 7 days of passes ≥ 10°. The values pass through the URL so the page stays shareable.

No JS? Fill the form by hand. The geolocation button needs JavaScript.